Weather History for Bloomington, IN

Change the Weather History Date:

Wednesday, January 6, 1999

  Actual Average Record
Temperature  
Mean Temperature 26 °F 29 °F  
Max Temperature 34 °F 38 °F 62 °F (2008)
Min Temperature 17 °F 21 °F -11 °F (2014)
Degree Days  
Heating Degree Days 40 36  
Month to date heating degree days 216  
Since 1 July heating degree days 2289  
Cooling Degree Days 0 0  
Month to date cooling degree days 0  
Year to date cooling degree days 0  
Moisture  
Dew Point 24 °F    
Average Humidity 83    
Maximum Humidity 93    
Minimum Humidity 63    
Precipitation  
Precipitation 0.03 in 0.13 in 0.27 in (2002)
Month to date precipitation 0.80  
Year to date precipitation 0.80  
Sea Level Pressure  
Sea Level Pressure 30.09 in    
Wind  
Wind Speed 13 mph (WSW)    
Max Wind Speed 20 mph    
Max Gust Speed 26 mph    
Visibility 6 miles    
Events Snow    
T = Trace of Precipitation, MM = Missing Value Source: NWS Daily Summary

Daily Weather History Graph

Daily Weather History Graph

Search for Another Location

Airport:

Trip Planner

Search our weather history database for the weather conditions in past years. The results will help you decide how hot, cold, wet, or windy it might be!

Date:

Astronomy

Jan. 06, 1999 Rise Set
Actual Time 8:06 AM EST 5:38 PM EST
Civil Twilight 7:36 AM EST 6:08 PM EST
Nautical Twilight 7:02 AM EST 6:41 PM EST
Astronomical Twilight 6:30 AM EST 7:14 PM EST
Moon 10:43 PM EST (1/6) 11:09 AM EST (1/6)
Length of Visible Light 10h 32m
Length of Day
9h 32m
Waning Gibbous, 77% of the Moon is Illuminated
Jan 6
Waning Gibbous
Jan 9
Last Quarter
Jan 17
New
Jan 24
First Quarter
Jan 31
Full

Hourly Weather History & Observations

Time (EST) Temp. Windchill Dew Point Humidity Pressure Visibility Wind Dir Wind Speed Gust Speed Precip Events Conditions
12:53 AM 21.9 °F 10.4 °F 10.9 °F 63% 30.13 in 10.0 mi SSW 11.5 mph - N/A   Overcast
1:53 AM 23.0 °F 11.7 °F 12.0 °F 63% 30.11 in 10.0 mi SSW 11.5 mph - N/A   Overcast
2:53 AM 25.0 °F 13.1 °F 14.0 °F 63% 30.10 in 10.0 mi SW 13.8 mph - N/A   Overcast
3:53 AM 26.1 °F 14.5 °F 15.1 °F 63% 30.08 in 10.0 mi SSW 13.8 mph - N/A   Overcast
4:53 AM 26.1 °F 15.0 °F 16.0 °F 66% 30.07 in 10.0 mi SSW 12.7 mph - N/A   Overcast
5:53 AM 27.0 °F 16.7 °F 17.1 °F 66% 30.06 in 10.0 mi SW 11.5 mph - N/A   Overcast
6:00 AM 26.6 °F 15.2 °F 17.6 °F 69% 30.03 in 10.0 mi SW 13.8 mph - N/A   Overcast
6:53 AM 28.0 °F 16.5 °F 19.9 °F 72% 30.07 in 10.0 mi SW 15.0 mph 21.9 mph N/A   Overcast
7:53 AM 28.0 °F 16.5 °F 21.9 °F 78% 30.08 in 10.0 mi SW 15.0 mph 23.0 mph N/A   Overcast
8:43 AM 28.4 °F 16.6 °F 24.8 °F 86% 30.05 in 10.0 mi SW 16.1 mph 20.7 mph N/A   Overcast
8:53 AM 28.9 °F 16.9 °F 24.1 °F 82% 30.07 in 10.0 mi SW 17.3 mph - N/A   Overcast
9:53 AM 30.0 °F 18.7 °F 26.1 °F 85% 30.09 in 10.0 mi SW 16.1 mph 23.0 mph N/A   Overcast
10:53 AM 30.9 °F 18.7 °F 27.0 °F 85% 30.10 in 10.0 mi SW 19.6 mph - N/A   Overcast
11:53 AM 32.0 °F 21.2 °F 27.0 °F 82% 30.08 in 10.0 mi SW 16.1 mph 23.0 mph N/A   Overcast
12:40 PM 32.0 °F 22.5 °F 26.6 °F 80% 30.02 in 10.0 mi SSW 12.7 mph - N/A   Overcast
12:53 PM 32.0 °F 21.2 °F 26.1 °F 79% 30.04 in 10.0 mi SW 16.1 mph 23.0 mph N/A   Overcast
1:53 PM 34.0 °F 22.7 °F 28.0 °F 79% 30.01 in 9.0 mi SW 19.6 mph 25.3 mph N/A   Overcast
2:05 PM 33.8 °F 23.2 °F 28.4 °F 81% 29.98 in 4.0 mi SW 17.3 mph 24.2 mph 0.00 in Snow Light Snow
2:33 PM 33.8 °F 23.5 °F 28.4 °F 81% 29.97 in 10.0 mi SW 16.1 mph 25.3 mph 0.00 in   Overcast
2:53 PM 34.0 °F 24.6 °F 28.0 °F 79% 30.01 in 10.0 mi WSW 13.8 mph 24.2 mph 0.00 in   Overcast
3:08 PM 33.8 °F 23.5 °F 28.4 °F 81% 29.99 in 1.8 mi WSW 16.1 mph 25.3 mph 0.00 in Snow Light Snow
3:17 PM 33.8 °F 24.3 °F 30.2 °F 87% 29.98 in 1.2 mi SW 13.8 mph - 0.00 in Snow Light Snow
3:26 PM 33.8 °F 23.2 °F 30.2 °F 87% 29.99 in 3.0 mi SW 17.3 mph 24.2 mph 0.00 in Snow Light Snow
3:36 PM 33.8 °F 22.8 °F 28.4 °F 81% 29.99 in 5.0 mi SW 18.4 mph 26.5 mph 0.00 in Snow Light Snow
3:53 PM 34.0 °F 23.0 °F 30.0 °F 85% 30.01 in 10.0 mi WSW 18.4 mph 25.3 mph 0.00 in   Overcast
4:07 PM 33.8 °F 24.3 °F 30.2 °F 87% 29.99 in 10.0 mi WSW 13.8 mph - N/A   Overcast
4:53 PM 34.0 °F 24.6 °F 30.0 °F 85% 30.04 in 9.0 mi WSW 13.8 mph - N/A   Overcast
5:12 PM 33.8 °F 25.3 °F 30.2 °F 87% 30.02 in 1.8 mi West 11.5 mph 20.7 mph 0.00 in Snow Light Snow
5:15 PM 33.8 °F 24.8 °F 30.2 °F 87% 30.02 in 1.0 mi WSW 12.7 mph 19.6 mph 0.00 in Snow Light Snow
5:27 PM 33.8 °F 25.8 °F 30.2 °F 87% 30.03 in 2.0 mi WSW 10.4 mph - 0.00 in Snow Light Snow
5:31 PM 33.8 °F 24.8 °F 30.2 °F 87% 30.03 in 3.0 mi WSW 12.7 mph - 0.00 in Snow Light Snow
5:40 PM 33.8 °F 25.8 °F 30.2 °F 87% 30.03 in 4.0 mi WSW 10.4 mph - 0.00 in Snow Light Snow
5:53 PM 33.1 °F 23.0 °F 30.9 °F 92% 30.06 in 2.0 mi WSW 15.0 mph 19.6 mph 0.00 in Snow Light Snow
6:01 PM 33.8 °F 24.3 °F 30.2 °F 87% 30.04 in 1.2 mi WSW 13.8 mph 19.6 mph 0.00 in Snow Light Snow
6:38 PM 32.0 °F 23.0 °F 30.2 °F 93% 30.06 in 1.0 mi WSW 11.5 mph - 0.00 in Snow Light Snow
6:53 PM 33.1 °F 24.4 °F 30.9 °F 92% 30.09 in 2.0 mi West 11.5 mph - 0.00 in Snow Light Snow
7:01 PM 32.0 °F 23.0 °F 30.2 °F 93% 30.07 in 1.5 mi West 11.5 mph - 0.00 in Snow Light Snow
7:42 PM 32.0 °F 23.6 °F 30.2 °F 93% 30.09 in 1.0 mi WNW 10.4 mph 20.7 mph 0.00 in Snow Light Snow
8:15 PM 28.4 °F 19.7 °F 26.6 °F 93% 30.12 in 1.5 mi NW 9.2 mph - 0.00 in Snow Light Snow
8:26 PM 28.4 °F 21.2 °F 26.6 °F 93% 30.13 in 2.5 mi NNW 6.9 mph - 0.00 in Snow Light Snow
8:37 PM 26.6 °F 15.7 °F 24.8 °F 93% 30.14 in 1.2 mi North 12.7 mph - 0.00 in Snow Light Snow
8:53 PM 25.0 °F 16.3 °F 23.0 °F 92% 30.19 in 1.5 mi NW 8.1 mph - 0.00 in Snow Light Snow
9:01 PM 24.8 °F 14.6 °F 21.2 °F 86% 30.16 in 1.5 mi NW 10.4 mph - 0.01 in Snow Light Snow
9:16 PM 21.2 °F 10.9 °F 19.4 °F 93% 30.17 in 1.0 mi North 9.2 mph - 0.01 in Snow Light Snow
9:29 PM 21.2 °F 11.7 °F 19.4 °F 93% 30.20 in 1.0 mi NNW 8.1 mph - 0.01 in Snow Light Snow
9:53 PM 21.0 °F 9.3 °F 18.0 °F 88% 30.23 in 1.0 mi NNW 11.5 mph 18.4 mph 0.02 in Snow Light Snow
10:38 PM 19.4 °F 10.4 °F 17.6 °F 93% 30.23 in 2.0 mi NW 6.9 mph - 0.01 in Snow Light Snow
10:53 PM 19.9 °F 11.1 °F 16.0 °F 85% 30.27 in 3.0 mi Variable 6.9 mph - 0.01 in Snow Light Snow
11:12 PM 19.4 °F 8.6 °F 15.8 °F 86% 30.25 in 2.5 mi NW 9.2 mph - 0.00 in Snow Light Snow
11:23 PM 19.4 °F 8.6 °F 14.0 °F 80% 30.26 in 3.0 mi NW 9.2 mph 17.3 mph 0.00 in Snow Light Snow
11:45 PM 17.6 °F 7.3 °F 12.2 °F 79% 30.27 in 5.0 mi NW 8.1 mph - 0.00 in Snow Light Snow
11:53 PM 17.1 °F 5.0 °F 12.0 °F 81% 30.31 in 8.0 mi NW 10.4 mph - 0.00 in Snow Light Snow